New York JFK, NY

9:37 PM EST on January 17, 2018 (GMT -0500)
Kennedy International

Weather History for KJFK - November, 2012

Change the Weather History Date:

Saturday, November 24, 2012

  Actual Average Record
Temperature  
Mean Temperature 43 °F 45 °F  
Max Temperature 49 °F 51 °F 64 °F (2014)
Min Temperature 36 °F 38 °F 21 °F (2000)
Degree Days  
Heating Degree Days 22 20  
Month to date heating degree days 483 398  
Since 1 July heating degree days 687 697  
Cooling Degree Days 0 0  
Month to date cooling degree days 0 0  
Year to date cooling degree days 1229 1005  
Moisture  
Dew Point 22 °F    
Average Humidity 60    
Maximum Humidity 86    
Minimum Humidity 33    
Precipitation  
Precipitation 0.01 in 0.12 in 1.24 in (1980)
Month to date precipitation 1.13 2.60  
Year to date precipitation 34.48 38.68  
Snow  
Snow 0.00 in 0.00 in - ()
Month to date snowfall 4.3 0.1  
Since 1 July snowfall 4.3 0.1  
Snow Depth 0.00 in    
Sea Level Pressure  
Sea Level Pressure 29.76 in    
Wind  
Wind Speed 20 mph (WNW)    
Max Wind Speed 33 mph    
Max Gust Speed 41 mph    
Visibility 10 miles    
Events      
T = Trace of Precipitation, MM = Missing Value Source: NWS Daily Summary

Daily Weather History Graph

Daily Weather History Graph

Search for Another Location

Airport or City:

Trip Planner

Search our weather history database for the weather conditions in past years. The results will help you decide how hot, cold, wet, or windy it might be!

Date:

Astronomy

Nov. 24, 2012 Rise Set
Actual Time 6:52 AM EST 4:31 PM EST
Civil Twilight 6:22 AM EST 5:01 PM EST
Nautical Twilight 5:49 AM EST 5:34 PM EST
Astronomical Twilight 5:16 AM EST 6:07 PM EST
Moon 2:15 PM EST (11/24) 3:06 AM EST (11/24)
Length of Visible Light 10h 38m
Length of Day
9h 38m
Waxing Gibbous, 87% of the Moon is Illuminated
Nov 24
Waxing Gibbous
Nov 28
Full
Dec 6
Last Quarter
Dec 13
New
Dec 20
First Quarter

Hourly Weather History & Observations

Time (EST) Temp. Windchill Dew Point Humidity Pressure Visibility Wind Dir Wind Speed Gust Speed Precip Events Conditions
12:51 AM 48.0 °F - 44.1 °F 86% 29.69 in 10.0 mi West 8.1 mph - 0.01 in   Overcast
1:51 AM 48.9 °F - 41.0 °F 74% 29.69 in 10.0 mi WNW 13.8 mph - N/A   Mostly Cloudy
2:51 AM 46.0 °F 38.5 °F 30.0 °F 54% 29.70 in 10.0 mi WNW 19.6 mph 27.6 mph N/A   Scattered Clouds
3:51 AM 44.1 °F 37.4 °F 28.0 °F 53% 29.70 in 10.0 mi WNW 13.8 mph 23.0 mph N/A   Scattered Clouds
4:51 AM 42.1 °F 34.9 °F 26.1 °F 53% 29.72 in 10.0 mi West 13.8 mph - N/A   Partly Cloudy
5:51 AM 42.1 °F 33.1 °F 21.9 °F 45% 29.74 in 10.0 mi WNW 20.7 mph 29.9 mph N/A   Partly Cloudy
6:51 AM 41.0 °F 30.2 °F 19.0 °F 41% 29.76 in 10.0 mi NW 27.6 mph 38.0 mph N/A   Scattered Clouds
7:51 AM 41.0 °F 32.8 °F 21.0 °F 45% 29.77 in 10.0 mi NW 16.1 mph 24.2 mph N/A   Scattered Clouds
8:51 AM 42.1 °F 32.3 °F 19.0 °F 40% 29.77 in 10.0 mi NW 24.2 mph 35.7 mph N/A   Mostly Cloudy
9:51 AM 44.1 °F 35.0 °F 19.0 °F 37% 29.77 in 10.0 mi NW 24.2 mph 33.4 mph N/A   Mostly Cloudy
10:51 AM 43.0 °F 33.8 °F 18.0 °F 37% 29.76 in 10.0 mi NW 23.0 mph 31.1 mph N/A   Mostly Cloudy
11:51 AM 43.0 °F 34.0 °F 18.0 °F 37% 29.74 in 10.0 mi WNW 21.9 mph 33.4 mph N/A   Mostly Cloudy
12:51 PM 46.0 °F 37.0 °F 19.0 °F 34% 29.73 in 10.0 mi WNW 27.6 mph 40.3 mph N/A   Mostly Cloudy
1:51 PM 42.1 °F 32.8 °F 19.0 °F 40% 29.73 in 10.0 mi WNW 21.9 mph 32.2 mph N/A   Mostly Cloudy
2:51 PM 42.1 °F 32.1 °F 19.9 °F 41% 29.73 in 10.0 mi NW 25.3 mph 33.4 mph N/A   Mostly Cloudy
3:51 PM 42.1 °F 32.8 °F 19.0 °F 40% 29.75 in 10.0 mi WNW 21.9 mph 32.2 mph N/A   Mostly Cloudy
4:51 PM 41.0 °F 32.5 °F 19.0 °F 41% 29.76 in 10.0 mi WNW 17.3 mph 25.3 mph 0.00 in   Mostly Cloudy
5:51 PM 39.9 °F 30.0 °F 14.0 °F 35% 29.78 in 10.0 mi NW 21.9 mph 28.8 mph N/A   Mostly Cloudy
6:51 PM 39.9 °F 30.2 °F 14.0 °F 35% 29.81 in 10.0 mi WNW 20.7 mph 33.4 mph 0.00 in   Scattered Clouds
7:51 PM 39.0 °F 31.0 °F 12.9 °F 34% 29.82 in 10.0 mi WNW 13.8 mph 28.8 mph N/A   Partly Cloudy
8:51 PM 37.9 °F 28.2 °F 14.0 °F 38% 29.83 in 10.0 mi WNW 18.4 mph 24.2 mph N/A   Partly Cloudy
9:51 PM 37.0 °F 27.7 °F 16.0 °F 42% 29.84 in 10.0 mi WNW 16.1 mph 25.3 mph N/A   Partly Cloudy
10:51 PM 37.0 °F 25.9 °F 17.1 °F 44% 29.86 in 10.0 mi WNW 23.0 mph 28.8 mph N/A   Partly Cloudy
11:51 PM 36.0 °F 26.3 °F 17.1 °F 46% 29.87 in 10.0 mi WNW 16.1 mph 25.3 mph N/A   Partly Cloudy